Regional Weather Roundup
Issued by NWS

Home | Current Version | Previous Version | Text Only | Print | Product List | Glossary Off
Versions: 1 2 3 4 5 6 7 8 9 10 11 12 13 14 15 16 17 18 19 20 21 22 23 24 25 26 27 28 29 30 31 32 33 34 35 36 37 38 39 40 41 42 43 44 45 46 47 48 49 50

000
ASUS45 KCYS 201010
RWRWY

WYOMING REGIONAL WEATHER ROUNDUP
NATIONAL WEATHER SERVICE CHEYENNE WY
400 AM MDT FRI APR 20 2018

NOTE:  "FAIR" INDICATES FEW OR NO CLOUDS BELOW 12,000 FEET
WITH NO SIGNIFICANT WEATHER AND/OR OBSTRUCTIONS TO VISIBILITY.

WYZ001-201100-
YELLOWSTONE NATIONAL PARK

CITY           SKY/WX    TMP DP  RH WIND       PRES   REMARKS
LK YELLOWSTONE   N/A     26  15  63 CALM      30.06F
W YELLOWSTONE  NOT AVBL

$$
WYZ002>013-054>058-071-098>099-201100-
NORTHERN WYOMING

CITY           SKY/WX    TMP DP  RH WIND       PRES   REMARKS
JACKSON        FAIR      36  22  56 N16       29.96S WCI  26
CODY           FAIR      40  26  57 NE5       30.03R
GREYBULL       FAIR      47  32  56 NW15      29.94R
WORLAND        FAIR      40  32  73 S9        29.95F WCI  34
SHERIDAN       FAIR      45  32  60 SE9       30.01R
BUFFALO        FAIR      41  30  65 SE9       30.03S
GILLETTE         N/A    N/A N/A N/A MISG      30.03S
HULETT         FAIR      39  32  75 N3        30.08R
NEWCASTLE      FAIR      43  23  45 SE25G32   30.07S

$$
WYZ014>020-022>026-101>103-201100-
CENTRAL WYOMING

CITY           SKY/WX    TMP DP  RH WIND       PRES   REMARKS
BIG PINEY      CLOUDY    42  19  39 NE12      29.93R
PINEDALE       CLOUDY    43  21  42 E16G23    29.96R
DUBOIS         CLOUDY    32  21  64 CALM      29.98S
LANDER         FAIR      41  27  57 SW6       29.96R
RIVERTON       FAIR      44  22  41 N8        29.96R
CASPER         FAIR      38  28  67 NE7       29.93S WCI  33
DOUGLAS        FAIR      38  27  64 SE12      29.99R WCI  30

$$
WYZ021-027>030-104>119-201100-
SOUTHERN WYOMING

CITY           SKY/WX    TMP DP  RH WIND       PRES   REMARKS
EVANSTON       CLOUDY    42  23  46 NE9       29.87R
KEMMERER       FAIR      41  23  48 E17G24    29.90R
FORT BRIDGER   PTSUNNY   40  35  81 E16G22    29.90S WCI  31
ROCK SPRINGS   CLOUDY    41  22  46 NE16      29.87F
DIXON          CLOUDY    42  32  67 CALM      29.86S
RAWLINS        FAIR      39  22  50 NE12      29.88F WCI  32
SARATOGA       FAIR      37  25  60 W6        29.87S WCI  33
LARAMIE        FAIR      33  22  63 S14       29.92F WCI  23
CHEYENNE       FAIR      33  25  72 SE15      29.97S WCI  23
TORRINGTON     FAIR      38  27  64 E16       30.02F WCI  29
PINE BLUFFS    FAIR      34  25  69 MISG      30.00S

$$



USA.gov is the U.S. government's official web portal to all federal, state and local government web resources and services.